Location: Fontevrault
(47.1823°N, 0.0493°E)
Time: 04:14:47
(UTC+00:00)

Uosat 12 SS-18 rocket - Pass Details

Date: 23 October 2021
Orbit: 579 x 1405 km, 64.6° (Epoch: 01 December)

Event Time Altitude Azimuth Distance (km) Brightness Sun altitude
Rises 18:13:50 0° 267° (W) 3,199 9.8 -13.6°
Reaches altitude 10° 18:16:29 10° 281° (WNW) 2,396 8.4 -14.0°
Maximum altitude 18:21:01 25° 336° (NNW) 1,781 6.6 -14.8°
Drops below altitude 10° 18:26:22 10° 29° (NNE) 2,871 7.2 -15.7°
Enters shadow 18:28:23 - 38° (NE) 3,502 7.5 -16.0°
